Overview Statistics Trail Chart Weather Telemetry Raw packets
 

This is the latest recevied weather packets stored in our database for station/object KR0L-13. If no packets are shown the sender has not sent any weather packets the latest 10 day(s).

<< 26 27 28 29 30 31 32 >>
Time Temp. Humidity Pressure Rain* Wind** Luminosity Snow
1788266120 26.11° C 53% 1016.7 hPa 0 mm - - -
1788265520 25.56° C 54% 1016.6 hPa 0 mm - - -
1788264920 25° C 55% 1016.5 hPa 0 mm - - -
1788264320 25° C 56% 1016.4 hPa 0 mm - - -
1788263720 25° C 56% 1016.3 hPa 0 mm - - -
1788263120 24.44° C 56% 1016.2 hPa 0 mm - - -
1788262520 24.44° C 56% 1016.3 hPa 0 mm - - -
1788261920 24.44° C 56% 1016.4 hPa 0 mm - - -
1788261320 24.44° C 56% 1016.4 hPa 0 mm - - -
1788260720 24.44° C 56% 1016.4 hPa 0 mm - - -
1788260120 24.44° C 57% 1016.4 hPa 0 mm - - -
1788259520 24.44° C 57% 1016.4 hPa 0 mm - - -
1788258920 24.44° C 57% 1016.4 hPa 0 mm - - -
1788258320 25° C 55% 1016.4 hPa 0 mm - - -
1788257720 25.56° C 54% 1016.4 hPa 0 mm - - -
1788257122 25.56° C 53% 1016.3 hPa 0 mm - - -
1788256522 26.11° C 51% 1016.4 hPa 0 mm - - -
1788255922 26.67° C 50% 1016.2 hPa 0 mm - - -
1788255322 26.67° C 50% 1016.1 hPa 0 mm - - -
1788254722 27.22° C 49% 1016.1 hPa 0 mm - - -
1788254120 27.22° C 49% 1016 hPa 0 mm - - -
1788253526 27.22° C 48% 1015.9 hPa 0 mm - - -
1788252922 27.22° C 48% 1015.9 hPa 0 mm - - -
1788252322 27.78° C 47% 1015.9 hPa 0 mm - - -
1788251725 27.78° C 46% 1015.7 hPa 0 mm - - -

* Rain latest hour (hover to see other rain measurements)
** Current wind speed in m/s (hover to see current wind gust speed)